* Astronomy

Members Login
Post Info TOPIC: Asteroid 2011 GK71


L

Posts: 131433
Date:
Asteroid 2011 GK71
Permalink  
 


Orbital elements:
2011 GK71
Epoch 2011 Apr. 9.0 TT = JDT 2455660.5                  MPC
M   9.89543              (2000.0)            P               Q
n   0.00494804     Peri.   99.59529     -0.38294802     -0.77939112
a  34.1072699      Node    33.66220     -0.09920812     -0.49900051
e   0.7924731      Incl.   63.45956     +0.91842722     -0.37887725
P 199              H    8.6           G   0.15
From 22 observations 2011 Apr. 14-27

MPEC 2011 - H41



__________________
Page 1 of 1  sorted by
Quick Reply

Please log in to post quick replies.



Create your own FREE Forum
Report Abuse
Powered by ActiveBoard